カタログに戻る

COSMOS 1266

運用中ナビゲーションLEO
NORAD 12409·PAYLOAD·🇷🇺 Russia

打ち上げ Apr 21, 1981 から Baikonur Cosmodrome

Loading…

次のパス (今後24時間)

TLE

最新Source: Space-Track

元期: Sep 14, 2026, 18:56 UTC

1 12409U 81037A   26257.78929331 -.00000089  00000-0  24927-5 0  9996
2 12409  64.7607  76.8680 0050167 255.1350 104.4152 13.90619210305145

AllMySatでCOSMOS 1266をリアルタイム追跡

Download on the App Store